Location: Balsareny
(41.8670°N, 1.8830°E)
Time: 14:52:23
(UTC+01:00)

Envisat - Pass Details

Date: 04 December 2021
Orbit: 764 x 766 km, 98.2° (Epoch: 19 January)

Event Time Altitude Azimuth Distance (km) Brightness Sun altitude
Rises 17:47:13 0° 192° (SSW) 3,217 6.8 -5.0°
Reaches altitude 10° 17:49:45 10° 202° (SSW) 2,296 6.3 -5.5°
Maximum altitude 17:54:12 31° 264° (W) 1,323 5.2 -6.2°
Drops below altitude 10° 17:58:42 10° 326° (NNW) 2,311 5.6 -7.0°
Sets 18:01:17 0° 337° (NNW) 3,242 6.2 -7.4°
